DW9085 Weather Reports


time (UTC)temp
C
wind
direction
speed
KPH
gust
KPH
rain 1hr
cm
rain 24hr
cm
rain mn
cm
humidity
%
barometer
mb
20260506161544 18 74 0.0 4.8 0.00 0.00 0.00 71 1003.3
20260506160044 18 55 0.0 4.8 0.00 0.00 0.00 66 1003.5
20260506154600 19 257 1.6 14.5 0.00 0.00 0.00 64 1003.3
20260506153041 19 200 0.0 12.9 0.00 0.00 0.00 66 1003.3
20260506151541 20 146 1.6 16.1 0.00 0.00 0.00 63 1003.4
20260506150040 20 323 1.6 9.7 0.00 0.00 0.00 62 1003.5
20260506144549 20 319 1.6 8.0 0.00 0.00 0.00 61 1003.7
20260506143038 20 294 1.6 11.3 0.00 0.00 0.00 62 1003.3
20260506141537 19 312 0.0 9.7 0.00 0.00 0.00 63 1003.4
20260506140037 19 62 1.6 11.3 0.00 0.00 0.00 62 1003.6
20260506134535 19 271 1.6 9.7 0.00 0.00 0.00 63 1003.5
20260506133045 19 92 0.0 12.9 0.00 0.00 0.00 64 1003.6
20260506131535 19 331 0.0 9.7 0.00 0.00 0.00 64 1003.7
20260506130036 18 250 0.0 6.4 0.00 0.00 0.00 65 1003.4
20260506124534 18 329 1.6 12.9 0.00 0.00 0.00 67 1003.3
20260506123033 18 288 1.6 8.0 0.00 0.00 0.00 69 1003.3
20260506121533 18 84 0.0 8.0 0.00 0.00 0.00 68 1003.6
20260506120033 18 253 1.6 6.4 0.00 0.00 0.00 68 1003.9
20260506114539 17 53 0.0 9.7 0.00 0.05 0.00 69 1003.9
20260506113033 17 13 0.0 9.7 0.00 0.05 0.00 70 1003.7
20260506111533 17 52 0.0 6.4 0.00 0.05 0.00 70 1003.8
20260506110040 17 134 1.6 6.4 0.00 0.05 0.00 70 1003.6
20260506104556 17 319 0.0 6.4 0.00 0.05 0.00 71 1003.8
20260506103039 16 74 0.0 6.4 0.00 0.05 0.00 72 1003.7
20260506101532 16 304 1.6 8.0 0.00 0.05 0.00 73 1003.4
20260506100040 16 265 0.0 3.2 0.00 0.05 0.00 74 1003.4
20260506094534 16 115 0.0 6.4 0.00 0.05 0.00 75 1003.4
20260506093029 16 140 0.0 3.2 0.00 0.05 0.00 75 1003.4
20260506091530 16 89 0.0 1.6 0.00 0.05 0.00 75 1003.6
20260506090037 16 89 0.0 3.2 0.00 0.05 0.00 74 1003.7
20260506084527 16 360 0.0 3.2 0.00 0.05 0.00 73 1003.7
20260506083036 16 313 0.0 6.4 0.00 0.05 0.00 72 1003.7
20260506081524 16 298 0.0 6.4 0.00 0.05 0.00 71 1003.8
20260506073020 17 40 0.0 6.4 0.00 0.05 0.00 68 1003.9
20260506071522 17 93 0.0 8.0 0.00 0.05 0.00 68 1003.9
20260506061515 18 221 0.0 8.0 0.00 0.05 0.00 64 1003.9
20260506044508 18 247 1.6 8.0 0.00 0.05 0.00 58 1004.5
20260506043011 19 72 0.0 4.8 0.00 0.05 0.00 58 1004.6
20260506041505 19 42 0.0 6.4 0.00 0.05 0.00 57 1004.4
20260506040003 19 276 0.0 11.3 0.00 0.05 0.00 56 1004.4
20260506034502 19 71 0.0 6.4 0.00 0.05 0.05 55 1004.4
20260506033002 20 306 1.6 9.7 0.00 0.05 0.05 54 1004.5
20260506031502 20 323 0.0 16.1 0.00 0.05 0.05 53 1004.4
20260506030002 20 39 1.6 9.7 0.00 0.05 0.05 53 1004.1
20260506024501 20 152 1.6 16.1 0.00 0.05 0.05 53 1004.3
20260506023001 21 153 0.0 12.9 0.00 0.05 0.05 51 1004.4
20260506021504 21 144 1.6 9.7 0.00 0.05 0.05 50 1004.4
20260506020002 21 63 1.6 14.5 0.00 0.05 0.05 47 1004.3
20260506014500 22 11 0.0 8.0 0.00 0.05 0.05 44 1004.0
20260506013101 22 293 0.0 6.4 0.00 0.05 0.05 41 1003.9
20260506011600 23 54 0.0 9.7 0.00 0.05 0.05 39 1003.7
20260506004604 23 63 0.0 8.0 0.00 0.05 0.05 38 1003.4
20260506003117 23 65 0.0 8.0 0.00 0.05 0.05 37 1003.4
20260506001623 23 321 0.0 12.9 0.00 0.05 0.05 37 1003.3
20260506000109 24 302 0.0 8.0 0.00 0.05 0.05 33 1003.0
20260505234613 24 65 0.0 8.0 0.00 0.05 0.05 33 1002.9
20260505233057 25 296 0.0 8.0 0.00 0.05 0.05 29 1002.8
20260505231559 25 163 1.6 22.5 0.00 0.05 0.05 29 1002.4
20260505230058 25 346 0.0 11.3 0.00 0.05 0.05 29 1002.4
20260505224558 25 231 1.6 9.7 0.00 0.05 0.05 27 1002.2
20260505223108 26 72 1.6 14.5 0.00 0.05 0.05 26 1002.2
20260505221603 26 322 4.8 12.9 0.00 0.05 0.05 25 1001.9
20260505220100 26 282 1.6 12.9 0.00 0.05 0.05 26 1001.8
20260505214603 26 317 3.2 12.9 0.00 0.05 0.05 26 1001.8
20260505213056 27 360 3.2 16.1 0.00 0.05 0.05 26 1001.7
20260505211629 27 26 1.6 14.5 0.00 0.05 0.05 26 1001.5
20260505210058 27 327 4.8 17.7 0.00 0.05 0.05 27 1001.7
20260505204558 27 306 1.6 17.7 0.00 0.05 0.05 28 1001.5
20260505203119 27 323 3.2 12.9 0.00 0.05 0.05 29 1001.7
20260505201553 27 13 3.2 20.9 0.00 0.05 0.05 28 1001.7
20260505200052 27 105 3.2 12.9 0.00 0.05 0.05 27 1001.8
20260505194552 27 285 6.4 20.9 0.00 0.05 0.05 27 1001.9
20260505193050 27 321 4.8 17.7 0.00 0.05 0.05 30 1002.3
20260505191555 27 338 4.8 16.1 0.00 0.05 0.05 28 1002.4
20260505190049 27 209 1.6 9.7 0.00 0.05 0.05 30 1002.8
20260505184551 28 305 0.0 8.0 0.00 0.05 0.05 30 1003.0
20260505183048 27 62 1.6 12.9 0.00 0.05 0.05 33 1003.0
20260505181546 27 239 4.8 20.9 0.00 0.05 0.05 34 1003.2
20260505180047 27 24 1.6 11.3 0.00 0.05 0.05 34 1003.3
20260505174544 27 82 4.8 17.7 0.00 0.05 0.05 32 1003.4
20260505173042 27 255 1.6 12.9 0.00 0.05 0.05 35 1003.4
20260505171539 26 301 1.6 9.7 0.00 0.05 0.05 37 1003.6
20260505170038 26 312 3.2 12.9 0.00 0.05 0.05 38 1003.9
20260505164537 26 108 1.6 8.0 0.00 0.05 0.05 39 1004.0
20260505163034 25 330 1.6 14.5 0.00 0.05 0.05 37 1004.2